Year,Month,Day,Hour,Minute,Value (Times are PST for windgust in km/hr)
2021,07,05,00,00,1.60
2021,07,05,00,01,1.60
2021,07,05,00,02,1.60
2021,07,05,00,03,1.60
2021,07,05,00,04,1.60
2021,07,05,00,05,1.60
2021,07,05,00,07,3.20
2021,07,05,00,08,3.20
2021,07,05,00,09,1.60
2021,07,05,00,22,1.60
2021,07,05,00,23,1.60
2021,07,05,00,24,3.20
2021,07,05,00,26,1.60
2021,07,05,00,27,1.60
2021,07,05,00,41,1.60
2021,07,05,00,42,1.60
2021,07,05,00,48,3.20
2021,07,05,00,49,1.60
2021,07,05,00,50,3.20
2021,07,05,00,51,3.20
2021,07,05,00,52,3.20
2021,07,05,00,53,3.20
2021,07,05,00,54,3.20
2021,07,05,00,55,3.20
2021,07,05,00,56,1.60
2021,07,05,00,59,1.60
2021,07,05,01,00,1.60
2021,07,05,01,01,1.60
2021,07,05,01,02,1.60
2021,07,05,01,03,1.60
2021,07,05,01,04,3.20
2021,07,05,01,05,3.20
2021,07,05,01,06,3.20
2021,07,05,01,07,3.20
2021,07,05,01,08,3.20
2021,07,05,01,10,1.60
2021,07,05,01,11,1.60
2021,07,05,01,12,1.60
2021,07,05,01,13,1.60
2021,07,05,01,14,1.60
2021,07,05,01,15,1.60
2021,07,05,01,16,1.60
2021,07,05,01,17,1.60
2021,07,05,01,18,1.60
2021,07,05,01,19,1.60
2021,07,05,01,20,1.60
2021,07,05,01,21,1.60
2021,07,05,01,23,1.60
2021,07,05,01,24,3.20
2021,07,05,01,25,3.20
2021,07,05,01,26,4.80
2021,07,05,01,27,4.80
2021,07,05,01,28,4.80
2021,07,05,01,29,1.60
2021,07,05,01,30,3.20
2021,07,05,01,31,4.80
2021,07,05,01,32,4.80
2021,07,05,01,33,3.20
2021,07,05,01,34,3.20
2021,07,05,01,42,1.60
2021,07,05,01,43,1.60
2021,07,05,01,44,1.60
2021,07,05,01,45,1.60
2021,07,05,01,46,1.60
2021,07,05,01,47,3.20
2021,07,05,01,48,4.80
2021,07,05,01,49,6.40
2021,07,05,01,50,6.40
2021,07,05,01,51,6.40
2021,07,05,01,52,4.80
2021,07,05,01,53,4.80
2021,07,05,01,54,3.20
2021,07,05,01,55,3.20
2021,07,05,01,56,3.20
2021,07,05,01,57,1.60
2021,07,05,01,58,1.60
2021,07,05,01,59,1.60
2021,07,05,02,00,1.60
2021,07,05,02,01,1.60
2021,07,05,02,02,1.60
2021,07,05,02,03,1.60
2021,07,05,02,04,1.60
2021,07,05,02,05,1.60
2021,07,05,02,06,1.60
2021,07,05,02,07,1.60
2021,07,05,02,08,1.60
2021,07,05,02,09,3.20
2021,07,05,02,10,3.20
2021,07,05,02,11,1.60
2021,07,05,02,12,1.60
2021,07,05,02,13,4.80
2021,07,05,02,14,1.60
2021,07,05,02,15,4.80
2021,07,05,02,16,4.80
2021,07,05,02,17,3.20
2021,07,05,02,18,1.60
2021,07,05,02,19,1.60
2021,07,05,02,20,1.60
2021,07,05,02,22,3.20
2021,07,05,02,23,1.60
2021,07,05,02,24,4.80
2021,07,05,02,25,4.80
2021,07,05,02,26,6.40
2021,07,05,02,27,4.80
2021,07,05,02,28,4.80
2021,07,05,02,29,3.20
2021,07,05,02,32,1.60
2021,07,05,02,35,1.60
2021,07,05,02,36,1.60
2021,07,05,02,37,1.60
2021,07,05,02,38,1.60
2021,07,05,02,39,1.60
2021,07,05,02,40,1.60
2021,07,05,02,41,1.60
2021,07,05,02,42,3.20
2021,07,05,02,43,1.60
2021,07,05,02,44,6.40
2021,07,05,02,45,8.10
2021,07,05,02,46,4.80
2021,07,05,02,47,6.40
2021,07,05,02,48,4.80
2021,07,05,02,49,4.80
2021,07,05,02,50,3.20
2021,07,05,02,51,8.10
2021,07,05,02,52,8.10
2021,07,05,02,53,8.10
2021,07,05,02,54,6.40
2021,07,05,02,55,4.80
2021,07,05,02,56,4.80
2021,07,05,02,57,4.80
2021,07,05,02,58,3.20
2021,07,05,02,59,3.20
2021,07,05,03,00,4.80
2021,07,05,03,01,4.80
2021,07,05,03,02,6.40
2021,07,05,03,03,6.40
2021,07,05,03,04,1.60
2021,07,05,03,05,3.20
2021,07,05,03,07,1.60
2021,07,05,03,08,1.60
2021,07,05,03,09,3.20
2021,07,05,03,10,8.10
2021,07,05,03,11,6.40
2021,07,05,03,12,1.60
2021,07,05,03,13,6.40
2021,07,05,03,14,3.20
2021,07,05,03,15,1.60
2021,07,05,03,16,4.80
2021,07,05,03,17,4.80
2021,07,05,03,18,1.60
2021,07,05,03,19,3.20
2021,07,05,03,20,1.60
2021,07,05,03,21,1.60
2021,07,05,03,23,1.60
2021,07,05,03,25,1.60
2021,07,05,03,26,1.60
2021,07,05,03,29,1.60
2021,07,05,03,43,4.80
2021,07,05,03,44,4.80
2021,07,05,03,45,6.40
2021,07,05,03,46,6.40
2021,07,05,03,47,4.80
2021,07,05,03,48,3.20
2021,07,05,03,49,3.20
2021,07,05,03,50,1.60
2021,07,05,03,51,1.60
2021,07,05,03,52,1.60
2021,07,05,03,53,1.60
2021,07,05,03,54,1.60
2021,07,05,03,55,3.20
2021,07,05,03,56,3.20
2021,07,05,03,57,6.40
2021,07,05,03,58,4.80
2021,07,05,03,59,6.40
2021,07,05,04,00,4.80
2021,07,05,04,01,4.80
2021,07,05,04,02,6.40
2021,07,05,04,03,3.20
2021,07,05,04,04,1.60
2021,07,05,04,09,1.60
2021,07,05,04,10,1.60
2021,07,05,04,11,1.60
2021,07,05,04,12,1.60
2021,07,05,04,13,3.20
2021,07,05,04,14,3.20
2021,07,05,04,15,1.60
2021,07,05,04,16,3.20
2021,07,05,04,17,3.20
2021,07,05,04,18,3.20
2021,07,05,04,19,3.20
2021,07,05,04,20,1.60
2021,07,05,04,21,1.60
2021,07,05,04,22,1.60
2021,07,05,04,23,1.60
2021,07,05,04,25,1.60
2021,07,05,04,26,1.60
2021,07,05,04,28,1.60
2021,07,05,04,29,1.60
2021,07,05,04,30,1.60
2021,07,05,04,31,1.60
2021,07,05,04,32,1.60
2021,07,05,04,33,1.60
2021,07,05,04,34,1.60
2021,07,05,04,35,1.60
2021,07,05,04,36,1.60
2021,07,05,04,37,1.60
2021,07,05,04,38,1.60
2021,07,05,04,40,1.60
2021,07,05,04,41,1.60
2021,07,05,04,42,1.60
2021,07,05,04,43,1.60
2021,07,05,04,44,1.60
2021,07,05,04,45,1.60
2021,07,05,04,46,1.60
2021,07,05,04,47,1.60
2021,07,05,04,48,1.60
2021,07,05,04,49,1.60
2021,07,05,04,50,1.60
2021,07,05,04,51,1.60
2021,07,05,04,52,1.60
2021,07,05,04,53,1.60
2021,07,05,04,54,1.60
2021,07,05,05,02,1.60
2021,07,05,05,03,1.60
2021,07,05,05,04,1.60
2021,07,05,05,05,1.60
2021,07,05,05,06,1.60
2021,07,05,05,07,1.60
2021,07,05,05,10,1.60
2021,07,05,05,11,1.60
2021,07,05,05,13,1.60
2021,07,05,05,14,1.60
2021,07,05,05,15,1.60
2021,07,05,05,16,1.60
2021,07,05,05,17,1.60
2021,07,05,05,18,1.60
2021,07,05,05,19,1.60
2021,07,05,05,20,1.60
2021,07,05,05,38,1.60
2021,07,05,05,49,1.60
2021,07,05,06,13,1.60
2021,07,05,06,14,1.60
2021,07,05,06,15,1.60
2021,07,05,06,20,1.60
2021,07,05,06,21,1.60
2021,07,05,06,22,1.60
2021,07,05,06,23,1.60
2021,07,05,06,24,1.60
2021,07,05,06,25,1.60
2021,07,05,06,26,1.60
2021,07,05,06,27,1.60
2021,07,05,07,36,3.20
2021,07,05,07,37,1.60
2021,07,05,07,38,3.20
2021,07,05,07,39,3.20
2021,07,05,07,40,1.60
2021,07,05,07,41,1.60
2021,07,05,07,48,3.20
2021,07,05,07,49,1.60
2021,07,05,07,50,1.60
2021,07,05,07,51,1.60
2021,07,05,07,52,1.60
2021,07,05,07,53,4.80
2021,07,05,07,54,3.20
2021,07,05,07,59,6.40
2021,07,05,08,00,6.40
2021,07,05,08,01,8.10
2021,07,05,08,02,8.10
2021,07,05,08,03,4.80
2021,07,05,08,04,8.10
2021,07,05,08,05,1.60
2021,07,05,08,06,3.20
2021,07,05,08,07,1.60
2021,07,05,08,08,1.60
2021,07,05,08,09,3.20
2021,07,05,08,11,4.80
2021,07,05,08,12,6.40
2021,07,05,08,13,3.20
2021,07,05,08,14,3.20
2021,07,05,08,15,3.20
2021,07,05,08,16,3.20
2021,07,05,08,17,3.20
2021,07,05,08,18,1.60
2021,07,05,08,19,1.60
2021,07,05,08,21,1.60
2021,07,05,08,24,3.20
2021,07,05,08,25,1.60
2021,07,05,08,26,3.20
2021,07,05,08,27,3.20
2021,07,05,08,31,1.60
2021,07,05,08,32,1.60
2021,07,05,08,33,1.60
2021,07,05,08,39,8.10
2021,07,05,08,40,4.80
2021,07,05,08,41,4.80
2021,07,05,08,42,3.20
2021,07,05,08,43,1.60
2021,07,05,08,44,3.20
2021,07,05,08,45,1.60
2021,07,05,08,47,1.60
2021,07,05,08,50,1.60
2021,07,05,08,51,1.60
2021,07,05,08,52,3.20
2021,07,05,08,53,3.20
2021,07,05,08,55,3.20
2021,07,05,08,58,3.20
2021,07,05,08,59,6.40
2021,07,05,09,00,3.20
2021,07,05,09,01,3.20
2021,07,05,09,02,3.20
2021,07,05,09,03,1.60
2021,07,05,09,04,1.60
2021,07,05,09,05,1.60
2021,07,05,09,06,4.80
2021,07,05,09,07,1.60
2021,07,05,09,08,1.60
2021,07,05,09,09,4.80
2021,07,05,09,10,4.80
2021,07,05,09,11,8.10
2021,07,05,09,12,4.80
2021,07,05,09,13,1.60
2021,07,05,09,14,4.80
2021,07,05,09,15,8.10
2021,07,05,09,16,11.30
2021,07,05,09,17,6.40
2021,07,05,09,18,8.10
2021,07,05,09,19,6.40
2021,07,05,09,20,4.80
2021,07,05,09,21,3.20
2021,07,05,09,22,4.80
2021,07,05,09,23,6.40
2021,07,05,09,24,4.80
2021,07,05,09,25,8.10
2021,07,05,09,26,8.10
2021,07,05,09,27,3.20
2021,07,05,09,28,3.20
2021,07,05,09,29,4.80
2021,07,05,09,30,4.80
2021,07,05,09,31,8.10
2021,07,05,09,32,4.80
2021,07,05,09,33,3.20
2021,07,05,09,34,4.80
2021,07,05,09,35,6.40
2021,07,05,09,36,6.40
2021,07,05,09,37,8.10
2021,07,05,09,38,8.10
2021,07,05,09,39,8.10
2021,07,05,09,40,4.80
2021,07,05,09,41,4.80
2021,07,05,09,42,11.30
2021,07,05,09,43,8.10
2021,07,05,09,44,8.10
2021,07,05,09,45,8.10
2021,07,05,09,46,9.60
2021,07,05,09,47,8.10
2021,07,05,09,48,8.10
2021,07,05,09,49,3.20
2021,07,05,09,50,4.80
2021,07,05,09,51,4.80
2021,07,05,09,52,8.10
2021,07,05,09,53,3.20
2021,07,05,09,54,3.20
2021,07,05,09,55,8.10
2021,07,05,09,56,8.10
2021,07,05,09,57,3.20
2021,07,05,09,58,4.80
2021,07,05,09,59,1.60
2021,07,05,10,00,9.60
2021,07,05,10,01,4.80
2021,07,05,10,02,9.60
2021,07,05,10,03,3.20
2021,07,05,10,04,3.20
2021,07,05,10,05,4.80
2021,07,05,10,06,4.80
2021,07,05,10,07,4.80
2021,07,05,10,08,4.80
2021,07,05,10,09,12.90
2021,07,05,10,10,6.40
2021,07,05,10,11,6.40
2021,07,05,10,12,3.20
2021,07,05,10,13,9.60
2021,07,05,10,14,9.60
2021,07,05,10,15,4.80
2021,07,05,10,16,1.60
2021,07,05,10,17,8.10
2021,07,05,10,18,9.60
2021,07,05,10,19,4.80
2021,07,05,10,20,9.60
2021,07,05,10,21,11.30
2021,07,05,10,22,12.90
2021,07,05,10,23,11.30
2021,07,05,10,24,8.10
2021,07,05,10,25,9.60
2021,07,05,10,26,6.40
2021,07,05,10,27,11.30
2021,07,05,10,28,11.30
2021,07,05,10,29,11.30
2021,07,05,10,30,11.30
2021,07,05,10,31,8.10
2021,07,05,10,32,8.10
2021,07,05,10,33,9.60
2021,07,05,10,34,11.30
2021,07,05,10,35,12.90
2021,07,05,10,36,11.30
2021,07,05,10,37,14.50
2021,07,05,10,38,12.90
2021,07,05,10,39,8.10
2021,07,05,10,40,11.30
2021,07,05,10,41,9.60
2021,07,05,10,42,11.30
2021,07,05,10,43,11.30
2021,07,05,10,44,11.30
2021,07,05,10,45,9.60
2021,07,05,10,46,3.20
2021,07,05,10,47,6.40
2021,07,05,10,48,8.10
2021,07,05,10,49,6.40
2021,07,05,10,50,6.40
2021,07,05,10,51,3.20
2021,07,05,10,52,9.60
2021,07,05,10,53,8.10
2021,07,05,10,54,8.10
2021,07,05,10,55,3.20
2021,07,05,10,56,4.80
2021,07,05,10,57,9.60
2021,07,05,10,58,11.30
2021,07,05,10,59,11.30
2021,07,05,11,00,11.30
2021,07,05,11,01,12.90
2021,07,05,11,02,9.60
2021,07,05,11,03,4.80
2021,07,05,11,04,11.30
2021,07,05,11,05,11.30
2021,07,05,11,06,11.30
2021,07,05,11,07,8.10
2021,07,05,11,08,14.50
2021,07,05,11,09,9.60
2021,07,05,11,10,11.30
2021,07,05,11,11,4.80
2021,07,05,11,12,9.60
2021,07,05,11,13,14.50
2021,07,05,11,14,12.90
2021,07,05,11,15,12.90
2021,07,05,11,16,4.80
2021,07,05,11,17,12.90
2021,07,05,11,18,12.90
2021,07,05,11,19,8.10
2021,07,05,11,20,12.90
2021,07,05,11,21,11.30
2021,07,05,11,22,9.60
2021,07,05,11,23,6.40
2021,07,05,11,24,6.40
2021,07,05,11,25,6.40
2021,07,05,11,26,6.40
2021,07,05,11,27,9.60
2021,07,05,11,28,12.90
2021,07,05,11,29,8.10
2021,07,05,11,30,11.30
2021,07,05,11,31,12.90
2021,07,05,11,32,9.60
2021,07,05,11,33,11.30
2021,07,05,11,34,11.30
2021,07,05,11,35,9.60
2021,07,05,11,36,11.30
2021,07,05,11,37,11.30
2021,07,05,11,38,8.10
2021,07,05,11,39,8.10
2021,07,05,11,40,9.60
2021,07,05,11,41,11.30
2021,07,05,11,42,14.50
2021,07,05,11,43,12.90
2021,07,05,11,44,11.30
2021,07,05,11,45,11.30
2021,07,05,11,46,14.50
2021,07,05,11,47,12.90
2021,07,05,11,48,14.50
2021,07,05,11,49,6.40
2021,07,05,11,50,14.50
2021,07,05,11,51,6.40
2021,07,05,11,52,8.10
2021,07,05,11,53,4.80
2021,07,05,11,54,11.30
2021,07,05,11,55,8.10
2021,07,05,11,56,8.10
2021,07,05,11,57,4.80
2021,07,05,11,58,3.20
2021,07,05,11,59,12.90
2021,07,05,12,00,14.50
2021,07,05,12,01,9.60
2021,07,05,12,02,14.50
2021,07,05,12,03,14.50
2021,07,05,12,04,12.90
2021,07,05,12,05,16.10
2021,07,05,12,06,17.70
2021,07,05,12,07,12.90
2021,07,05,12,08,12.90
2021,07,05,12,09,11.30
2021,07,05,12,10,11.30
2021,07,05,12,11,9.60
2021,07,05,12,12,16.10
2021,07,05,12,13,8.10
2021,07,05,12,14,4.80
2021,07,05,12,15,12.90
2021,07,05,12,16,9.60
2021,07,05,12,17,8.10
2021,07,05,12,18,17.70
2021,07,05,12,19,9.60
2021,07,05,12,20,11.30
2021,07,05,12,21,12.90
2021,07,05,12,22,14.50
2021,07,05,12,23,14.50
2021,07,05,12,24,16.10
2021,07,05,12,25,19.30
2021,07,05,12,26,14.50
2021,07,05,12,27,12.90
2021,07,05,12,28,3.20
2021,07,05,12,29,17.70
2021,07,05,12,30,16.10
2021,07,05,12,31,19.30
2021,07,05,12,32,20.90
2021,07,05,12,33,17.70
2021,07,05,12,34,17.70
2021,07,05,12,35,17.70
2021,07,05,12,36,20.90
2021,07,05,12,37,17.70
2021,07,05,12,38,14.50
2021,07,05,12,39,17.70
2021,07,05,12,40,16.10
2021,07,05,12,41,17.70
2021,07,05,12,42,19.30
2021,07,05,12,43,14.50
2021,07,05,12,44,12.90
2021,07,05,12,45,11.30
2021,07,05,12,46,14.50
2021,07,05,12,47,12.90
2021,07,05,12,48,11.30
2021,07,05,12,49,9.60
2021,07,05,12,50,12.90
2021,07,05,12,51,16.10
2021,07,05,12,52,8.10
2021,07,05,12,53,14.50
2021,07,05,12,54,14.50
2021,07,05,12,55,11.30
2021,07,05,12,56,11.30
2021,07,05,12,57,16.10
2021,07,05,12,58,17.70
2021,07,05,12,59,12.90
2021,07,05,13,00,16.10
2021,07,05,13,01,8.10
2021,07,05,13,02,14.50
2021,07,05,13,03,12.90
2021,07,05,13,04,12.90
2021,07,05,13,05,11.30
2021,07,05,13,06,6.40
2021,07,05,13,07,8.10
2021,07,05,13,08,8.10
2021,07,05,13,09,8.10
2021,07,05,13,10,4.80
2021,07,05,13,11,6.40
2021,07,05,13,12,6.40
2021,07,05,13,13,11.30
2021,07,05,13,14,11.30
2021,07,05,13,15,14.50
2021,07,05,13,16,8.10
2021,07,05,13,17,8.10
2021,07,05,13,18,16.10
2021,07,05,13,19,11.30
2021,07,05,13,20,12.90
2021,07,05,13,21,8.10
2021,07,05,13,22,16.10
2021,07,05,13,23,4.80
2021,07,05,13,24,9.60
2021,07,05,13,25,8.10
2021,07,05,13,26,11.30
2021,07,05,13,27,12.90
2021,07,05,13,28,11.30
2021,07,05,13,29,16.10
2021,07,05,13,30,11.30
2021,07,05,13,31,12.90
2021,07,05,13,32,12.90
2021,07,05,13,33,11.30
2021,07,05,13,34,12.90
2021,07,05,13,35,12.90
2021,07,05,13,36,14.50
2021,07,05,13,37,16.10
2021,07,05,13,38,12.90
2021,07,05,13,39,12.90
2021,07,05,13,40,11.30
2021,07,05,13,41,8.10
2021,07,05,13,42,14.50
2021,07,05,13,43,12.90
2021,07,05,13,44,9.60
2021,07,05,13,45,11.30
2021,07,05,13,46,4.80
2021,07,05,13,47,6.40
2021,07,05,13,48,6.40
2021,07,05,13,49,6.40
2021,07,05,13,50,9.60
2021,07,05,13,51,12.90
2021,07,05,13,52,12.90
2021,07,05,13,53,20.90
2021,07,05,13,54,17.70
2021,07,05,13,55,14.50
2021,07,05,13,56,22.50
2021,07,05,13,57,19.30
2021,07,05,13,58,16.10
2021,07,05,13,59,14.50
2021,07,05,14,00,19.30
2021,07,05,14,01,17.70
2021,07,05,14,02,20.90
2021,07,05,14,03,17.70
2021,07,05,14,04,20.90
2021,07,05,14,05,17.70
2021,07,05,14,06,17.70
2021,07,05,14,07,20.90
2021,07,05,14,08,17.70
2021,07,05,14,09,19.30
2021,07,05,14,10,19.30
2021,07,05,14,11,16.10
2021,07,05,14,12,12.90
2021,07,05,14,13,17.70
2021,07,05,14,14,12.90
2021,07,05,14,15,16.10
2021,07,05,14,16,20.90
2021,07,05,14,17,16.10
2021,07,05,14,18,16.10
2021,07,05,14,19,17.70
2021,07,05,14,20,14.50
2021,07,05,14,21,11.30
2021,07,05,14,22,19.30
2021,07,05,14,23,16.10
2021,07,05,14,24,19.30
2021,07,05,14,25,14.50
2021,07,05,14,26,17.70
2021,07,05,14,27,20.90
2021,07,05,14,28,17.70
2021,07,05,14,29,17.70
2021,07,05,14,30,16.10
2021,07,05,14,31,19.30
2021,07,05,14,32,16.10
2021,07,05,14,33,12.90
2021,07,05,14,34,17.70
2021,07,05,14,35,12.90
2021,07,05,14,36,12.90
2021,07,05,14,37,12.90
2021,07,05,14,38,17.70
2021,07,05,14,39,17.70
2021,07,05,14,40,20.90
2021,07,05,14,41,20.90
2021,07,05,14,42,20.90
2021,07,05,14,43,16.10
2021,07,05,14,44,16.10
2021,07,05,14,45,12.90
2021,07,05,14,46,12.90
2021,07,05,14,47,16.10
2021,07,05,14,48,17.70
2021,07,05,14,49,14.50
2021,07,05,14,50,12.90
2021,07,05,14,51,6.40
2021,07,05,14,52,17.70
2021,07,05,14,53,11.30
2021,07,05,14,54,16.10
2021,07,05,14,55,14.50
2021,07,05,14,56,11.30
2021,07,05,14,57,11.30
2021,07,05,14,58,11.30
2021,07,05,14,59,11.30
2021,07,05,15,00,12.90
2021,07,05,15,01,12.90
2021,07,05,15,02,12.90
2021,07,05,15,03,14.50
2021,07,05,15,04,19.30
2021,07,05,15,05,17.70
2021,07,05,15,06,20.90
2021,07,05,15,07,14.50
2021,07,05,15,08,12.90
2021,07,05,15,09,12.90
2021,07,05,15,10,11.30
2021,07,05,15,11,14.50
2021,07,05,15,12,11.30
2021,07,05,15,13,9.60
2021,07,05,15,14,12.90
2021,07,05,15,15,12.90
2021,07,05,15,16,14.50
2021,07,05,15,17,14.50
2021,07,05,15,18,16.10
2021,07,05,15,19,14.50
2021,07,05,15,20,11.30
2021,07,05,15,21,12.90
2021,07,05,15,22,12.90
2021,07,05,15,23,14.50
2021,07,05,15,24,12.90
2021,07,05,15,25,8.10
2021,07,05,15,26,12.90
2021,07,05,15,27,11.30
2021,07,05,15,28,14.50
2021,07,05,15,29,12.90
2021,07,05,15,30,12.90
2021,07,05,15,31,9.60
2021,07,05,15,32,12.90
2021,07,05,15,33,14.50
2021,07,05,15,34,8.10
2021,07,05,15,35,6.40
2021,07,05,15,36,9.60
2021,07,05,15,37,11.30
2021,07,05,15,38,4.80
2021,07,05,15,39,11.30
2021,07,05,15,40,6.40
2021,07,05,15,41,1.60
2021,07,05,15,42,3.20
2021,07,05,15,43,8.10
2021,07,05,15,44,8.10
2021,07,05,15,45,8.10
2021,07,05,15,46,4.80
2021,07,05,15,47,8.10
2021,07,05,15,48,4.80
2021,07,05,15,49,8.10
2021,07,05,15,50,6.40
2021,07,05,15,51,9.60
2021,07,05,15,52,9.60
2021,07,05,15,53,11.30
2021,07,05,15,54,4.80
2021,07,05,15,55,6.40
2021,07,05,15,56,9.60
2021,07,05,15,57,6.40
2021,07,05,15,58,14.50
2021,07,05,15,59,9.60
2021,07,05,16,00,8.10
2021,07,05,16,01,11.30
2021,07,05,16,02,12.90
2021,07,05,16,03,8.10
2021,07,05,16,04,12.90
2021,07,05,16,05,8.10
2021,07,05,16,06,4.80
2021,07,05,16,07,6.40
2021,07,05,16,08,8.10
2021,07,05,16,09,11.30
2021,07,05,16,10,9.60
2021,07,05,16,11,8.10
2021,07,05,16,12,12.90
2021,07,05,16,13,6.40
2021,07,05,16,14,6.40
2021,07,05,16,15,8.10
2021,07,05,16,16,12.90
2021,07,05,16,17,12.90
2021,07,05,16,18,12.90
2021,07,05,16,19,9.60
2021,07,05,16,20,9.60
2021,07,05,16,21,4.80
2021,07,05,16,22,8.10
2021,07,05,16,23,19.30
2021,07,05,16,24,17.70
2021,07,05,16,25,11.30
2021,07,05,16,26,14.50
2021,07,05,16,27,14.50
2021,07,05,16,28,14.50
2021,07,05,16,29,11.30
2021,07,05,16,30,11.30
2021,07,05,16,31,16.10
2021,07,05,16,32,12.90
2021,07,05,16,33,11.30
2021,07,05,16,34,6.40
2021,07,05,16,35,11.30
2021,07,05,16,36,9.60
2021,07,05,16,37,11.30
2021,07,05,16,38,11.30
2021,07,05,16,39,6.40
2021,07,05,16,40,8.10
2021,07,05,16,41,8.10
2021,07,05,16,42,12.90
2021,07,05,16,43,8.10
2021,07,05,16,44,14.50
2021,07,05,16,45,12.90
2021,07,05,16,46,11.30
2021,07,05,16,47,8.10
2021,07,05,16,48,8.10
2021,07,05,16,49,8.10
2021,07,05,16,50,9.60
2021,07,05,16,51,8.10
2021,07,05,16,52,9.60
2021,07,05,16,53,9.60
2021,07,05,16,54,8.10
2021,07,05,16,55,9.60
2021,07,05,16,56,11.30
2021,07,05,16,57,11.30
2021,07,05,16,58,9.60
2021,07,05,16,59,16.10
2021,07,05,17,00,14.50
2021,07,05,17,01,14.50
2021,07,05,17,02,17.70
2021,07,05,17,03,16.10
2021,07,05,17,04,12.90
2021,07,05,17,05,8.10
2021,07,05,17,06,11.30
2021,07,05,17,07,11.30
2021,07,05,17,08,9.60
2021,07,05,17,09,8.10
2021,07,05,17,10,8.10
2021,07,05,17,11,6.40
2021,07,05,17,12,9.60
2021,07,05,17,13,8.10
2021,07,05,17,14,11.30
2021,07,05,17,15,11.30
2021,07,05,17,16,11.30
2021,07,05,17,17,9.60
2021,07,05,17,18,6.40
2021,07,05,17,19,4.80
2021,07,05,17,20,6.40
2021,07,05,17,21,14.50
2021,07,05,17,22,11.30
2021,07,05,17,23,11.30
2021,07,05,17,24,8.10
2021,07,05,17,25,8.10
2021,07,05,17,26,8.10
2021,07,05,17,27,9.60
2021,07,05,17,28,9.60
2021,07,05,17,29,8.10
2021,07,05,17,30,6.40
2021,07,05,17,31,8.10
2021,07,05,17,32,9.60
2021,07,05,17,33,6.40
2021,07,05,17,34,9.60
2021,07,05,17,35,11.30
2021,07,05,17,36,12.90
2021,07,05,17,37,12.90
2021,07,05,17,38,8.10
2021,07,05,17,39,14.50
2021,07,05,17,40,9.60
2021,07,05,17,41,6.40
2021,07,05,17,42,8.10
2021,07,05,17,43,9.60
2021,07,05,17,44,9.60
2021,07,05,17,45,8.10
2021,07,05,17,46,6.40
2021,07,05,17,47,6.40
2021,07,05,17,48,6.40
2021,07,05,17,49,8.10
2021,07,05,17,50,6.40
2021,07,05,17,51,11.30
2021,07,05,17,52,14.50
2021,07,05,17,53,9.60
2021,07,05,17,54,9.60
2021,07,05,17,55,8.10
2021,07,05,17,56,6.40
2021,07,05,17,57,8.10
2021,07,05,17,58,4.80
2021,07,05,17,59,8.10
2021,07,05,18,00,4.80
2021,07,05,18,01,8.10
2021,07,05,18,02,8.10
2021,07,05,18,03,4.80
2021,07,05,18,04,8.10
2021,07,05,18,05,14.50
2021,07,05,18,06,11.30
2021,07,05,18,07,8.10
2021,07,05,18,08,8.10
2021,07,05,18,09,8.10
2021,07,05,18,10,6.40
2021,07,05,18,11,8.10
2021,07,05,18,12,6.40
2021,07,05,18,13,6.40
2021,07,05,18,14,6.40
2021,07,05,18,15,8.10
2021,07,05,18,16,6.40
2021,07,05,18,17,4.80
2021,07,05,18,18,4.80
2021,07,05,18,19,6.40
2021,07,05,18,20,8.10
2021,07,05,18,21,8.10
2021,07,05,18,22,6.40
2021,07,05,18,23,9.60
2021,07,05,18,24,11.30
2021,07,05,18,25,8.10
2021,07,05,18,26,12.90
2021,07,05,18,27,8.10
2021,07,05,18,28,9.60
2021,07,05,18,29,8.10
2021,07,05,18,30,4.80
2021,07,05,18,31,3.20
2021,07,05,18,32,6.40
2021,07,05,18,33,4.80
2021,07,05,18,34,4.80
2021,07,05,18,35,6.40
2021,07,05,18,36,8.10
2021,07,05,18,37,14.50
2021,07,05,18,38,4.80
2021,07,05,18,39,4.80
2021,07,05,18,40,11.30
2021,07,05,18,41,9.60
2021,07,05,18,42,9.60
2021,07,05,18,43,9.60
2021,07,05,18,44,4.80
2021,07,05,18,45,6.40
2021,07,05,18,46,4.80
2021,07,05,18,47,4.80
2021,07,05,18,48,8.10
2021,07,05,18,49,6.40
2021,07,05,18,50,6.40
2021,07,05,18,51,3.20
2021,07,05,18,52,8.10
2021,07,05,18,53,6.40
2021,07,05,18,54,8.10
2021,07,05,18,55,4.80
2021,07,05,18,56,3.20
2021,07,05,18,57,4.80
2021,07,05,18,58,8.10
2021,07,05,18,59,14.50
2021,07,05,19,00,6.40
2021,07,05,19,01,9.60
2021,07,05,19,02,8.10
2021,07,05,19,03,8.10
2021,07,05,19,04,3.20
2021,07,05,19,05,8.10
2021,07,05,19,06,6.40
2021,07,05,19,07,3.20
2021,07,05,19,08,4.80
2021,07,05,19,09,4.80
2021,07,05,19,10,6.40
2021,07,05,19,11,16.10
2021,07,05,19,12,12.90
2021,07,05,19,13,11.30
2021,07,05,19,14,9.60
2021,07,05,19,15,6.40
2021,07,05,19,16,6.40
2021,07,05,19,17,8.10
2021,07,05,19,18,6.40
2021,07,05,19,19,4.80
2021,07,05,19,20,4.80
2021,07,05,19,21,8.10
2021,07,05,19,22,9.60
2021,07,05,19,23,8.10
2021,07,05,19,24,6.40
2021,07,05,19,25,6.40
2021,07,05,19,26,8.10
2021,07,05,19,27,4.80
2021,07,05,19,28,6.40
2021,07,05,19,29,11.30
2021,07,05,19,30,11.30
2021,07,05,19,31,9.60
2021,07,05,19,32,9.60
2021,07,05,19,33,6.40
2021,07,05,19,34,9.60
2021,07,05,19,35,8.10
2021,07,05,19,36,11.30
2021,07,05,19,37,6.40
2021,07,05,19,38,6.40
2021,07,05,19,39,8.10
2021,07,05,19,40,8.10
2021,07,05,19,41,4.80
2021,07,05,19,42,3.20
2021,07,05,19,43,3.20
2021,07,05,19,44,3.20
2021,07,05,19,45,4.80
2021,07,05,19,46,6.40
2021,07,05,19,47,4.80
2021,07,05,19,48,4.80
2021,07,05,19,49,4.80
2021,07,05,19,50,8.10
2021,07,05,19,51,8.10
2021,07,05,19,52,6.40
2021,07,05,19,53,3.20
2021,07,05,19,54,4.80
2021,07,05,19,55,8.10
2021,07,05,19,56,4.80
2021,07,05,19,57,6.40
2021,07,05,19,58,3.20
2021,07,05,19,59,3.20
2021,07,05,20,00,6.40
2021,07,05,20,01,8.10
2021,07,05,20,02,8.10
2021,07,05,20,03,8.10
2021,07,05,20,04,11.30
2021,07,05,20,05,9.60
2021,07,05,20,06,9.60
2021,07,05,20,07,8.10
2021,07,05,20,08,8.10
2021,07,05,20,09,4.80
2021,07,05,20,10,4.80
2021,07,05,20,11,4.80
2021,07,05,20,12,4.80
2021,07,05,20,13,9.60
2021,07,05,20,14,6.40
2021,07,05,20,15,8.10
2021,07,05,20,16,3.20
2021,07,05,20,17,6.40
2021,07,05,20,18,4.80
2021,07,05,20,19,8.10
2021,07,05,20,20,4.80
2021,07,05,20,21,1.60
2021,07,05,20,22,1.60
2021,07,05,20,23,1.60
2021,07,05,20,24,4.80
2021,07,05,20,25,6.40
2021,07,05,20,26,8.10
2021,07,05,20,27,4.80
2021,07,05,20,28,8.10
2021,07,05,20,29,8.10
2021,07,05,20,30,6.40
2021,07,05,20,31,3.20
2021,07,05,20,32,1.60
2021,07,05,20,33,3.20
2021,07,05,20,34,6.40
2021,07,05,20,35,4.80
2021,07,05,20,36,1.60
2021,07,05,20,37,8.10
2021,07,05,20,38,1.60
2021,07,05,20,39,4.80
2021,07,05,20,40,4.80
2021,07,05,20,41,6.40
2021,07,05,20,42,6.40
2021,07,05,20,43,4.80
2021,07,05,20,44,4.80
2021,07,05,20,45,4.80
2021,07,05,20,46,6.40
2021,07,05,20,47,6.40
2021,07,05,20,48,6.40
2021,07,05,20,49,8.10
2021,07,05,20,50,8.10
2021,07,05,20,51,6.40
2021,07,05,20,52,6.40
2021,07,05,20,53,4.80
2021,07,05,20,54,6.40
2021,07,05,20,55,4.80
2021,07,05,20,56,3.20
2021,07,05,21,01,1.60
2021,07,05,21,02,1.60
2021,07,05,21,03,1.60
2021,07,05,21,04,1.60
2021,07,05,21,05,1.60
2021,07,05,21,12,1.60
2021,07,05,21,13,3.20
2021,07,05,21,14,1.60
2021,07,05,21,15,1.60
2021,07,05,21,16,1.60
2021,07,05,21,17,3.20
2021,07,05,21,18,1.60
2021,07,05,21,19,3.20
2021,07,05,21,20,1.60
2021,07,05,21,21,1.60
2021,07,05,21,22,1.60
2021,07,05,21,23,1.60
2021,07,05,21,29,1.60
2021,07,05,21,31,1.60
2021,07,05,21,32,1.60
2021,07,05,22,10,1.60
2021,07,05,22,16,1.60
2021,07,05,22,23,1.60
